Location: Champseau
(45.8333°N, 1.7667°E)
Time: 22:45:50
(UTC+00:00)

DX 1 - Visible Passes

Search period start: 01 December 2021 00:00
Search period end: 11 December 2021 00:00
Orbit: 619 x 629 km, 98.4° (Epoch: 01 December)

Date Brightness Start Highest point End Pass type
(mag) Time Alt. Az. Time Alt. Az. Time Alt. Az.
01 Dec ? 06:37:32 10° SE 06:41:41 44° ENE 06:45:52 10° N visible
03 Dec ? 05:41:10 10° E 05:43:12 13° ENE 05:45:15 10° NNE visible
04 Dec ? 05:58:29 10° ESE 06:01:33 19° ENE 06:04:37 10° NNE visible
05 Dec ? 06:16:16 10° ESE 06:19:56 27° ENE 06:23:39 10° N visible
06 Dec ? 06:34:18 10° SE 06:38:23 40° ENE 06:42:29 10° N visible
08 Dec ? 05:38:18 10° E 05:39:56 12° ENE 05:41:34 10° NE visible
09 Dec ? 05:55:25 10° ESE 05:58:15 17° ENE 06:01:07 10° NNE visible
10 Dec ? 06:13:05 10° ESE 06:16:38 25° ENE 06:20:11 10° N visible
